Regional Weather Roundup
Issued by NWS

Home | Current Version | Previous Version | Graphics & Text | Print | Product List | Glossary On
Versions: 1 2 3 4 5 6 7 8 9 10 11 12 13 14 15 16 17 18 19 20 21 22 23 24 25 26 27 28 29 30 31 32 33 34 35 36 37 38 39 40 41 42 43 44 45 46 47 48 49 50
000
ASUS44 KMEG 271300
RWRTN
TENNESSEE HOURLY STATE WEATHER ROUNDUP
NATIONAL WEATHER SERVICE MEMPHIS TN
700 AM CST FRI FEB 27 2015

TNZ002-004-019-021-049-052-054-088>092-271400-
WEST TENNESSEE

CITY           SKY/WX    TMP DP  RH WIND       PRES   REMARKS
MEMPHIS INTL   PTCLDY    21  11  65 NE12      30.54R WCI   9
NWS MEMPHIS      N/A     20 N/A N/A MISG        N/A
JACKSON        PTCLDY    19  12  74 N9        30.55R WCI   8
DYERSBURG      PTCLDY    16   0  48 N8        30.59R WCI   5
UNION CITY     CLOUDY    12   9  85 N12       30.57R WCI  -2
PARIS          CLOUDY    16  10  79 N10       30.55R WCI   3
LEXINGTON      PTCLDY    19   7  58 NE6       30.51R WCI  11
SAVANNAH       CLEAR     21   7  53 NE5       30.52R WCI  15
$$

TNZ008-025-027-028-033-062-065-066-271400-
NORTH MIDDLE TENNESSEE

CITY           SKY/WX    TMP DP  RH WIND       PRES   REMARKS
NASHVILLE      PTCLDY    19  13  77 N9        30.52R WCI   8
CLARKSVILLE    PTCLDY    15   9  76 N10       30.55R WCI   2
COOKEVILLE     PTCLDY    19  10  68 VRB7      30.45R WCI  10
CROSSVILLE     PTCLDY    18   9  68 N8        30.39R WCI   8
$$

TNZ061-075-076-078-094-096-097-271400-
SOUTH MIDDLE TENNESSEE

CITY           SKY/WX    TMP DP  RH WIND       PRES   REMARKS
FAYETTEVILLE   MOCLDY    21  14  73 N12         N/A  WCI   9
TULLAHOMA      CLOUDY    19  14  79 N8        30.43R WCI   9
WINCHESTER     CLOUDY    23  18  80 N8        30.43R WCI  14
COLUMBIA         N/A     18  18 100 N6        30.48R WCI   9
SHELBYVILLE    CLOUDY    21  16  79 N12       30.48R WCI   9
$$

TNZ017-018-042-046-047-271400-
NORTHEAST TENNESSEE

CITY           SKY/WX    TMP DP  RH WIND       PRES   REMARKS
TRI CITIES     CLOUDY    26  19  74 N6        30.33R WCI  19
ELIZABETHTON   CLOUDY    25  18  74 NW3       30.31R
$$

TNZ012-013-036-069-073-074-271400-
CENTRAL EAST TENNESSEE

CITY           SKY/WX    TMP DP  RH WIND       PRES   REMARKS
KNOXVILLE      CLOUDY    25  17  72 N10       30.40R WCI  15
OAK RIDGE      CLOUDY    25  18  74 NE5       30.43R WCI  19
GATLINBURG     CLOUDY    25  18  74 NW9       30.39R WCI  15
$$

TNZ083-085-099-271400-
SOUTHEAST TENNESSEE

CITY           SKY/WX    TMP DP  RH WIND       PRES   REMARKS
CHATTANOOGA    MOCLDY    29  19  66 N13       30.42R WCI  19
$$

SKY/WX REPORTED AS FAIR MEANS FEW OR NO CLOUDS BELOW
12 THOUSAND FEET.




USA.gov is the U.S. government's official web portal to all federal, state and local government web resources and services.